Reflectivity
5 -16 2 -20 -20 -20 -20 -16 -20 -20 -20 -20 -20 -20 -20 -20 -20 -20 -20 -20 -20 -20 -20 -20 -20 -20 -20 -20 -20 -20 -20 -20 -19 -12 -20 -11 -20 -19 -20 -12 -20 -20 -20 -20 -20 -20 -20
-8 2 -7 -20 -20 -20 16 8 -20 -20 -20 -20 -20 -20 -20 -20 -20 -20 -20 -20 -20 -20 -20 -20 -20 -20 -20 -20 -20 -20 -20 -20 -20 -9 -20 -20 -7 -20 -20 -20 -20 -20 -5 -9 -20 -20 -20
-20 -20 -20 -19 -16 4 16 7 -20 -20 -20 -20 -20 -20 -20 -20 -20 -20 -20 -20 -20 -20 -20 -20 -20 -20 -20 -20 -20 -20 -20 -20 -20 -20 -20 -20 -16 -7 -20 -20 -20 -20 -20 -20 -20 -20 -20
4 -9 -20 -20 -20 9 9 8 -20 -20 -20 -20 -20 -20 -20 -20 -20 -20 -20 -20 -20 -20 -20 -20 -20 -20 -20 -20 -20 -20 -20 -20 -20 -20 -20 -20 -20 -20 -20 -20 -20 -20 -20 -20 -20 -20 -20
12 -5 -6 -20 -20 -11 -18 -1 -20 -20 -20 -20 -20 -20 -20 -20 -20 -20 -20 -20 -20 -20 -20 -20 -20 -20 -20 -20 -20 -20 -20 -20 -20 -20 -20 -20 -20 -20 -20 -20 -20 -20 -20 -20 -20 -20 -20
20 6 -20 -20 -20 -17 12 -15 -15 -20 -20 -20 -20 -20 -20 -20 -20 -20 -20 -20 -20 -20 -20 -20 -20 -20 -20 -20 -20 -20 -20 -20 -20 -20 -20 -20 -20 -20 -20 -20 -20 -20 -20 -20 -20 -20 -20
21 15 -6 -20 -20 -20 1 1 -1 -20 -20 -20 -20 -20 -20 -20 -20 -20 -20 -20 -20 -20 -20 -20 -20 -20 -20 -20 -20 -20 -20 -20 -20 -20 -20 -20 -20 -20 -20 -20 -20 -20 -20 -20 -20 -20 -20
27 25 12 -8 -20 -14 -8 -8 -20 -20 -20 -20 -20 -20 -20 -20 -20 -20 -20 -20 -20 -20 -20 -20 -20 -20 -20 -20 -20 -20 -20 -20 -20 -20 -20 -20 -20 -20 -20 -20 -20 -20 -20 -20 -20 -20 -20
30 27 21 3 -19 -3 -14 -1 -20 -20 -20 -20 -20 -20 -20 -20 -20 -20 -20 -20 -20 -20 -20 -20 -20 -20 -20 -20 -20 -20 -20 -20 -20 -20 -20 -20 -20 -20 -20 -20 -20 -20 -20 -20 -20 -20 -20
32 31 19 4 11 10 -15 9 6 6 -20 -20 -20 -20 -20 -20 -20 -20 -20 -20 -20 -20 -20 -20 -20 -20 -20 -20 -20 -20 -20 -20 -20 -20 -20 -20 -20 -20 -20 -20 -20 -20 -20 -20 -20 -20 -20
24 23 24 10 21 11 11 14 5 -20 -20 -20 -20 -20 -20 -20 -20 -20 -20 -20 -20 -20 -20 -20 -20 -20 -20 -20 -20 -20 -20 -20 -20 -20 -20 -20 -20 -20 -20 -20 -20 -20 -20 -20 -20 -20 -20
17 34 19 22 13 18 11 14 -1 -20 -20 -20 -20 -20 -20 -20 -20 -20 -20 -20 -20 -14 -19 -20 -20 -20 -20 -20 -20 -20 -20 -20 -20 -20 -20 -20 -20 -20 -20 -20 -20 -20 -20 -20 -20 -20 -20
18 29 29 28 26 9 6 11 -5 -20 -20 -20 -20 -20 -20 -20 -20 -20 -20 -20 -20 -18 -20 -20 -20 -20 -20 -20 -20 -20 -20 -20 -20 -20 -20 -20 -20 -20 -20 -20 -20 -20 -20 -20 -20 -20 -20
23 32 30 25 25 16 -8 8 -11 -2 -17 -20 -20 -20 -20 -20 -20 -20 -20 -20 -20 -20 -20 -20 -20 -20 -20 -20 -20 -20 -20 -20 -20 -20 -20 -20 -20 -20 -20 -20 -20 -20 -20 -17 -20 -20 -20
28 29 26 22 19 28 -14 1 2 5 -19 -15 -20 -20 -20 -20 -20 -20 -20 13 -20 -20 -20 -20 -20 -20 -20 -20 -20 -20 -20 -20 -20 -20 -20 -20 -20 -20 -20 -20 -20 -20 -20 -20 -20 -20 -20
27 28 25 25 25 24 8 5 4 4 -19 -10 -13 -19 -19 -20 -20 -20 -14 -11 -20 -20 -20 -20 -20 -20 -20 -20 -20 -20 -20 -20 -20 -20 -20 -20 -20 -20 -20 -20 -20 -20 -20 -20 -20 -20 -20
19 19 25 27 25 25 17 6 8 9 -17 0 -4 1 -20 -20 -20 -20 -20 -20 -20 -20 -20 -20 -20 -20 -20 -20 -20 -20 -20 -20 -20 -20 -20 -20 -20 -20 -20 -20 -20 -20 -20 -20 -20 -20 -20
27 17 29 29 24 15 11 7 3 -0 -8 5 3 -14 -20 -20 -20 -10 -20 -20 -20 -20 -20 -20 -20 -20 -20 -20 -20 -20 -20 -20 -20 -20 -20 -20 -20 -20 -20 -20 -20 -20 -20 -20 -20 -20 -20
29 25 28 24 26 11 11 0 -5 -16 10 11 3 -20 -20 -20 1 -20 -20 -20 -20 -20 -20 -20 -20 -20 -20 -20 -20 -20 -20 -20 -20 -20 -20 -20 -20 -20 -20 -20 -20 -20 -20 -20 -20 -20 -20
28 27 26 27 15 11 6 2 -10 -9 14 5 -3 4 -16 -20 -20 -20 -20 -20 -20 -20 -20 -20 -20 -20 -20 -20 -20 -20 -20 -20 -20 -20 -20 -20 -20 -20 -20 -20 -20 -20 -20 -20 -20 -20 -20
33 30 26 30 21 3 7 2 -20 13 9 -3 -3 3 -18 -13 3 -13 -18 -20 -20 -20 -20 -20 -20 -20 -20 -20 -20 -20 -20 -20 -20 -20 -20 -20 -20 -20 -20 -20 -20 -20 -20 -20 -20 -20 -20
31 30 25 30 19 1 5 -14 6 14 -0 -5 14 -20 -18 1 -20 -20 -20 -20 -20 -20 -20 -20 -20 -20 -20 -20 -20 -20 -20 -20 -20 -20 -20 -20 -20 -20 -20 -20 -20 -20 -20 -20 -20 -20 -20
31 25 24 25 13 -2 -6 -19 10 -4 1 1 -18 -4 7 -1 -16 -20 -20 -20 -20 -20 -20 -20 -20 -20 -20 -20 -20 -20 -20 -20 -20 -20 -20 -20 -20 -20 -20 -20 -20 -20 -20 -20 -20 -20 -20
27 26 24 24 11 4 -13 -12 3 -3 -7 -8 -11 10 7 -3 -20 -20 -20 -20 -20 -20 -20 -20 -20 -20 -17 -16 -20 -20 -20 -20 -20 -20 -20 -20 -20 -20 -20 -20 -20 -20 -20 -20 -20 -20 -20
28 28 21 -14 -20 -15 -1 2 8 8 -14 -0 -4 14 9 -4 -20 -20 -20 -20 -20 -20 -20 -20 -20 -16 -17 -20 -20 -20 -20 -20 -20 -20 -20 -20 -20 -20 -20 -20 -20 -20 -20 -20 -20 -20 -20
28 27 14 -0 -20 -7 3 4 5 6 3 -0 14 3 -3 -20 -20 -20 -20 -20 -20 -20 -20 -20 -20 -20 -20 -20 -20 -20 -20 -20 -20 -20 -20 -20 -20 -20 -20 -20 -20 -20 -20 -20 -20 -20 -20
27 26 22 5 -1 1 -7 0 3 3 8 -0 -8 -7 8 4 -20 -20 -20 -20 -20 -20 -20 -20 -20 -20 -20 -20 -20 -20 -20 -20 -20 -20 -20 -20 -20 -20 -20 -20 -20 -20 -20 -20 -20 -20 -20
27 25 26 7 -7 6 6 4 8 14 11 -19 -14 -20 -11 4 -1 -8 4 4 -20 -20 -15 -20 -20 -20 -20 -20 -20 -20 -20 -20 -20 -20 -20 -20 -20 -20 -9 1 -17 -20 -20 -20 -20 -20 -20
21 1 -10 -20 -20 3 5 6 3 9 12 -9 6 6 -0 1 5 8 -4 -9 -20 -3 -16 -1 -18 -20 -20 -20 -20 -20 -20 -20 -20 -20 -20 -20 -20 -20 -20 -20 -20 -20 -20 -20 -20 -20 -20
Wind_Speed
22 20 19 17 16 15 13 11 9 6 5 2 4 5 6 7 7 8 8 10 12 14 17 17 21 16 7 12 11 10 10 14 9 10 11 9 13 8 15 17 21 22 20 18 16 15 17
23 21 20 18 17 17 15 12 9 7 6 3 2 6 7 7 7 9 8 10 12 14 16 16 19 21 4 11 9 9 12 13 16 9 11 18 15 14 10 10 9 17 17 14 14 14 14
24 21 20 18 17 16 15 13 10 8 7 3 2 5 7 7 7 9 8 9 11 13 17 16 15 9 19 9 6 9 9 13 11 13 9 7 4 3 18 19 16 18 19 13 8 5 6
24 22 20 19 18 15 13 13 10 9 7 4 2 4 5 7 7 8 8 8 10 12 16 15 12 7 7 4 8 11 8 11 11 7 8 10 11 13 7 13 10 10 10 8 6 1 3
24 23 22 20 18 16 14 12 11 10 7 5 2 4 4 6 6 6 7 7 9 11 15 18 8 7 7 2 11 8 9 7 6 8 6 6 6 11 15 10 9 8 7 14 8 3 1
25 24 23 21 19 17 15 13 11 10 8 5 2 4 4 4 4 4 7 6 5 9 9 11 3 5 3 7 6 5 5 5 3 2 10 8 7 9 3 5 3 8 8 8 10 3 10
26 26 24 22 20 19 17 14 12 11 8 6 3 4 3 2 1 3 5 5 5 3 13 10 12 18 13 9 10 8 4 4 7 11 11 16 12 11 9 8 7 9 13 11 8 2 4
27 25 24 23 21 20 18 16 13 12 9 6 3 3 3 2 1 1 6 4 6 9 10 11 10 12 8 0 9 17 4 1 9 14 16 14 13 7 6 7 8 6 10 9 8 1 5
29 27 25 24 22 20 20 17 14 12 9 6 4 5 5 2 0 2 6 6 9 14 6 4 6 8 9 12 9 11 13 11 11 15 16 14 6 5 5 11 10 13 12 7 6 1 2
32 30 27 24 22 21 19 16 14 13 9 7 5 6 7 5 3 7 4 4 7 6 2 6 6 5 4 8 7 7 4 5 6 11 10 10 4 7 9 9 9 4 6 3 3 5 1
31 29 28 26 23 20 17 15 15 13 10 7 6 5 8 10 1 10 5 6 3 1 2 8 5 2 4 4 15 6 7 5 5 6 4 6 8 4 9 6 9 5 3 4 5 7 6
35 31 27 25 23 20 18 15 15 12 10 7 7 5 5 5 3 7 7 4 0 4 4 6 6 9 9 6 7 5 9 14 15 19 18 10 6 9 5 1 5 2 2 2 3 5 4
35 32 29 26 23 20 19 17 14 11 9 7 6 5 5 4 4 5 5 4 4 4 8 8 9 12 12 10 10 11 10 9 5 6 6 9 7 5 7 4 3 3 2 2 3 3 3
34 31 29 26 25 23 20 18 14 11 9 9 9 8 1 4 4 6 4 4 4 8 12 10 17 14 10 12 6 10 10 6 3 2 10 7 5 6 4 6 6 4 5 2 3 3 5
33 32 29 27 25 23 20 18 14 12 11 12 7 4 4 2 2 3 5 3 8 8 8 14 16 14 12 7 5 8 7 7 4 4 3 4 5 5 6 7 6 3 2 4 3 4 3
35 34 31 28 25 24 21 18 15 13 12 13 4 7 5 3 3 4 2 5 6 5 11 17 10 13 12 12 9 8 6 3 4 1 4 4 6 3 6 1 7 6 3 2 3 0 3
36 34 33 29 26 24 22 19 17 15 15 5 5 6 5 5 3 3 5 6 2 5 11 15 3 10 10 14 8 10 6 6 2 5 1 7 3 5 2 4 3 4 3 2 2 3 3
36 33 33 30 26 24 22 20 18 16 8 4 5 4 5 6 5 3 3 7 2 11 5 4 3 6 8 15 10 5 7 6 7 8 8 4 2 5 5 7 4 3 1 6 3 3 4
36 34 32 30 28 25 23 20 18 16 18 5 4 4 4 3 5 5 8 7 8 10 9 6 4 5 10 11 7 9 10 6 8 5 6 7 3 5 5 5 1 0 3 3 3 2 7
36 35 33 31 28 25 23 21 18 17 16 5 5 5 4 4 3 11 12 10 9 11 9 6 5 5 10 11 4 11 9 8 7 8 7 2 4 2 2 3 6 3 4 3 2 4 4
36 35 33 30 28 25 24 21 19 15 10 2 4 4 6 6 3 11 12 14 12 8 6 7 5 9 12 7 9 9 12 11 7 6 4 2 2 2 4 7 9 10 10 14 10 10 7
36 34 32 30 27 26 24 22 18 13 13 4 4 3 4 7 12 14 14 10 16 11 11 14 7 11 12 8 4 12 17 10 8 9 8 4 2 2 3 9 9 12 14 18 20 18 20
36 33 31 30 27 26 23 20 17 15 10 4 1 1 2 9 14 11 10 11 15 13 10 10 10 9 9 5 5 10 12 8 7 10 9 7 4 2 1 3 7 9 15 17 17 18 17
35 33 32 30 28 25 23 20 17 16 12 3 2 1 3 5 10 11 15 12 14 12 7 6 9 9 10 16 15 13 9 7 8 9 8 7 6 2 1 2 4 3 1 5 6 5 8
35 33 31 30 27 25 22 20 17 14 9 3 3 1 1 4 9 13 13 14 11 10 6 7 11 15 13 13 6 5 3 5 5 6 7 8 6 2 2 4 11 8 5 3 5 6 11
35 32 30 28 26 24 22 19 17 15 9 4 3 4 1 4 5 11 12 12 11 9 7 8 10 10 8 4 3 4 5 5 4 6 6 7 7 4 4 3 4 5 6 5 5 4 9
34 32 30 27 25 23 22 20 17 15 7 2 3 5 3 5 7 7 7 10 10 9 5 10 5 4 8 3 2 3 3 8 8 8 6 7 5 8 7 5 6 5 7 4 2 4 8
34 32 30 28 26 24 22 20 17 13 6 1 3 4 2 4 9 15 10 7 12 8 7 9 5 1 2 2 3 1 2 4 4 9 9 10 8 5 7 5 7 6 3 2 7 9 12
34 31 29 27 26 23 22 20 17 12 10 2 4 4 6 6 5 7 13 14 14 4 6 10 1 9 5 3 2 1 1 2 5 3 13 7 8 4 8 4 4 2 4 8 10 10 11
Wind_Direction
177 175 173 171 173 175 181 197 203 213 225 240 305 318 319 324 348 340 18 23 345 330 311 306 303 299 294 70 31 1 322 357 33 355 31 45 74 83 89 90 82 94 94 92 96 93 89
175 174 172 173 174 181 171 205 202 214 228 232 294 313 318 321 345 340 14 18 348 327 308 304 297 281 240 72 339 6 20 28 6 44 35 76 87 86 85 112 96 121 114 113 105 104 96
172 171 171 176 170 187 171 200 203 212 226 228 285 310 313 321 347 344 356 10 344 326 310 305 315 33 63 46 32 330 41 41 44 20 83 47 76 85 105 100 117 121 111 91 97 57 106
170 171 173 173 173 173 173 186 202 212 217 222 261 299 311 320 348 346 345 360 327 315 306 290 306 40 71 21 347 6 23 45 52 76 67 51 106 123 78 132 134 146 162 124 57 227 114
169 173 174 173 170 169 179 179 202 211 212 216 245 296 312 321 338 342 330 323 303 315 298 290 283 131 91 241 34 32 13 23 23 103 72 161 133 117 141 147 158 187 88 104 89 53 126
174 175 173 172 170 173 181 172 202 212 206 216 225 280 294 315 321 326 300 296 303 304 239 259 141 111 118 44 12 63 353 324 126 149 148 160 150 160 129 227 7 114 93 69 99 19 86
179 178 174 171 170 179 178 180 195 211 202 212 219 258 286 336 319 297 287 234 194 114 31 61 77 92 112 107 30 79 352 52 52 58 71 36 78 59 50 32 37 91 104 103 102 314 88
178 179 173 172 173 179 178 188 189 208 203 208 220 242 248 211 275 35 281 296 73 117 100 97 84 74 89 140 66 13 146 50 108 105 101 76 65 41 39 42 52 84 123 97 106 99 248
181 177 174 175 176 174 179 188 189 203 196 199 211 227 227 196 176 196 238 39 19 5 109 44 61 79 87 70 52 30 10 62 73 68 51 78 84 44 65 57 71 43 35 31 19 74 308
181 173 174 173 174 182 174 184 193 198 187 191 199 225 220 181 141 194 219 120 59 15 113 136 193 121 166 140 65 32 81 15 80 90 85 68 37 80 84 61 344 105 20 325 286 256 260
173 171 171 172 172 177 165 179 195 191 184 187 191 226 232 236 297 194 135 115 54 289 114 173 125 68 123 282 145 54 343 111 119 115 129 65 45 40 56 28 340 54 343 331 314 280 324
168 167 170 170 169 169 165 178 193 181 177 184 188 214 206 225 245 140 124 149 248 55 254 170 146 162 144 129 92 120 92 81 84 87 82 94 86 31 34 22 16 71 257 226 259 274 263
165 165 165 169 165 168 165 180 185 171 168 180 182 207 221 223 169 136 168 199 74 130 165 166 173 175 141 135 134 147 153 155 150 116 116 109 77 93 5 263 167 232 334 259 209 176 257
163 163 163 165 167 167 162 174 174 164 168 173 177 204 352 83 143 155 212 181 133 174 188 159 151 172 155 140 121 143 150 125 104 235 156 154 159 356 16 18 359 20 337 352 254 318 15
162 160 163 167 167 160 167 169 165 162 167 175 177 156 144 82 211 231 208 95 200 200 157 154 164 171 150 146 155 197 204 121 98 330 153 126 104 107 52 43 339 62 62 11 295 230 268
164 163 164 162 163 160 169 163 164 166 180 192 171 175 122 172 251 225 151 218 200 303 157 161 172 195 174 177 161 176 160 98 120 56 330 68 115 197 104 256 63 5 62 204 59 241 260
165 165 159 157 163 162 165 161 166 171 199 137 217 175 119 175 212 165 148 228 160 209 167 186 168 192 181 165 184 180 148 135 113 135 119 105 112 133 154 191 106 139 132 68 288 291 279
163 163 157 156 161 164 161 163 172 177 155 125 211 115 142 180 152 167 186 200 204 173 72 83 268 221 177 157 165 134 158 159 147 154 131 65 119 154 109 82 8 328 164 176 228 188 255
162 160 155 157 162 161 162 165 178 169 184 192 129 115 153 231 147 182 205 152 194 153 162 177 172 236 145 163 140 130 107 125 158 157 147 186 157 127 163 147 83 354 57 109 93 310 246
162 158 156 159 160 160 161 169 179 184 210 292 104 104 133 216 221 179 179 168 167 190 156 175 163 169 174 137 137 148 132 158 164 101 30 137 197 182 162 100 110 171 207 182 144 198 249
158 156 154 158 157 160 163 171 178 188 135 241 132 180 168 183 259 196 186 178 173 166 144 178 177 204 168 151 147 149 154 140 163 133 171 148 157 103 204 229 202 193 200 195 208 226 228
156 155 155 154 159 163 166 169 175 162 123 261 131 144 166 149 170 197 188 203 183 174 161 187 198 193 163 163 175 167 150 171 172 164 178 133 168 251 250 236 246 258 248 213 208 222 246
154 156 154 156 161 162 161 160 169 151 161 250 307 296 167 145 179 189 195 208 191 181 176 199 206 176 142 130 82 135 152 167 143 163 173 162 130 190 191 26 336 279 247 240 249 240 229
155 155 156 158 160 159 156 159 164 158 189 334 269 154 93 167 174 182 178 201 194 143 163 195 205 157 97 95 82 75 92 106 146 163 174 155 143 128 262 289 242 104 141 17 6 321 291
153 154 155 156 156 155 153 157 160 164 167 284 359 295 127 122 169 170 178 204 160 114 147 97 36 112 140 106 75 65 40 32 314 166 199 165 139 170 223 233 305 294 33 330 310 304 314
151 152 154 153 152 151 150 152 154 156 181 257 56 309 102 110 194 189 186 174 131 114 88 91 110 133 151 70 97 155 174 133 185 175 204 194 195 196 175 246 254 116 113 21 350 269 37
150 151 153 151 152 150 149 148 149 158 189 229 70 355 73 85 8 342 189 141 123 112 110 119 113 110 80 116 156 186 162 148 161 171 181 190 183 227 219 244 271 307 65 68 237 53 349
149 151 151 151 149 147 146 144 148 155 179 47 75 327 75 83 32 23 4 134 148 115 145 161 100 74 100 139 193 179 243 174 194 186 174 176 179 189 212 235 251 88 146 219 16 343 346
145 146 147 147 145 145 145 144 147 152 169 165 94 48 64 81 95 77 55 32 21 38 129 164 224 145 156 163 217 117 104 143 215 220 166 195 208 181 191 216 153 142 289 12 11 8 355